Regional Weather Roundup
Issued by NWS

Current Version | Previous Version | Text Only | Print | Product List | Glossary Off
Versions: 1 2 3 4 5 6 7 8 9 10 11 12 13 14 15 16 17 18 19 20 21 22 23 24 25 26 27
000 ASUS45 KBOI 222310 RWRID IDAHO REGIONAL WEATHER ROUNDUP NATIONAL WEATHER SERVICE BOISE ID 500 PM MDT SUN MAY 22 2022 NOTE: "FAIR" INDICATES FEW OR NO CLOUDS BELOW 12000 FEET WITH NO SIGNIFICANT WEATHER AND/OR OBSTRUCTIONS TO VISIBILITY IDZ012-014-230000- SOUTHWEST IDAHO CITY SKY/WX TMP DP RH WIND PRES REMARKS BOISE SUNNY 67 23 19 NW14G25 30.11F CALDWELL SUNNY 68 28 22 W13 30.13F MOUNTAIN HOME SUNNY 66 23 19 N20G26 30.09S $$ IDZ016-017-230000- SOUTHCENTRAL IDAHO CITY SKY/WX TMP DP RH WIND PRES REMARKS BURLEY LGT RAIN 42 38 85 NE14G30 30.16F JEROME PTSUNNY 56 33 42 E10G23 30.11S TWIN FALLS MOSUNNY 61 24 24 NW13G25 30.11F $$ IDZ019>023-230000- SOUTHEAST IDAHO CITY SKY/WX TMP DP RH WIND PRES REMARKS IDAHO FALLS PTSUNNY 47 35 63 NW5 30.14F POCATELLO CLOUDY 46 36 68 SW5 30.17F REXBURG PTSUNNY 46 37 71 S6 30.12F $$ IDZ006-010-011-018-031-032-230000- CENTRAL IDAHO MOUNTAINS CITY SKY/WX TMP DP RH WIND PRES REMARKS MCCALL MOSUNNY 55 23 28 N14 30.15S HAILEY MOSUNNY 46 37 71 SE12 30.15R STANLEY N/A 52 20 28 NW8G17 30.15F SALMON PTSUNNY 55 34 45 S7 30.15R CHALLIS CLOUDY 53 25 33 N10 30.11F $$ IDZ002-004-006-007-026-230000- NORTHERN IDAHO CITY SKY/WX TMP DP RH WIND PRES REMARKS LEWISTON MOSUNNY 69 35 28 W7 30.17F LOWELL N/A 52 45 77 NE5 30.22R COEUR D`ALENE MOSUNNY 65 31 28 W10 30.17F MULLAN PASS CLOUDY 44 21 40 MISG 30.19F $$

USA.gov is the U.S. government's official web portal to all federal, state and local government web resources and services.